Regional Weather Roundup
Issued by NWS

Home | Current Version | Previous Version | Text Only | Print | Product List | Glossary Off
Versions: 1 2 3 4 5 6 7 8 9 10 11 12 13 14 15 16 17 18 19 20 21 22 23 24 25 26 27 28 29 30 31 32 33 34 35 36 37 38 39 40 41 42 43 44 45 46 47 48 49 50

000
ASUS45 KABQ 031010
RWRNM
NEW MEXICO REGIONAL WEATHER ROUNDUP
NATIONAL WEATHER SERVICE ALBUQUERQUE NM
400 AM MDT THU SEP 03 2015

NOTE: "FAIR" MEANS FEW OR NO CLOUDS BELOW 12,000 FEET AGL WITH NO
       SIGNIFICANT WEATHER OR OBSTRUCTIONS TO VISION.

      THIS PRODUCT IS RELEASED AS TWO VERSIONS.  ONE VERSION NEAR
      THE TOP OF THE HOUR CONTAINING PRELIMINARY DATA FROM ALBUQUERQUE
      AND OTHER STATIONS.  A FINAL VERSION WITH ADDITIONAL DATA IS
      ISSUED ABOUT 10 MINUTES AFTER THE HOUR.

NMZ501-503-504-510>518-031100-
NORTHWEST PLATEAU/NORTHCENTRAL MOUNTAINS

CITY           SKY/WX    TMP DP  RH WIND       PRES   REMARKS
FARMINGTON     CLOUDY    64  51  62 NE5       30.14F
LOS ALAMOS     MOCLDY    61  46  56 CALM      30.27F
SANTA FE       MOCLDY    62  46  55 NE6       30.20F
TAOS           MOCLDY    52  37  58 SE8       30.29R

$$
NMZ402-403-502-505>509-031100-
WESTCENTRAL MOUNTAINS/SOUTHWEST MOUNTAINS

CITY           SKY/WX    TMP DP  RH WIND       PRES   REMARKS
GALLUP         FAIR      57  47  69 CALM      30.23S
GRANTS         MOCLDY    55  52  90 CALM      30.24F
SILVER CITY      N/A     63  55  77 N6        30.21S

$$
NMZ407-409-411-412-031100-
SOUTHERN DESERTS

CITY           SKY/WX    TMP DP  RH WIND       PRES   REMARKS
LORDSBURG      FAIR      64  59  82 SE6       30.11F
DEMING         FAIR      70  56  61 W7        30.11F
LAS CRUCES     FAIR      68  54  61 W7        30.12S
HOLLOMAN AFB   CLOUDY    74  52  45 N5        30.05R
ALAMOGORDO     MOCLDY    73  50  43 N3        30.08R
T OR C         FAIR      65  56  72 S6        30.13R

$$
NMZ519>523-031100-
CENTRAL VALLEYS/CENTRAL HIGHLANDS

CITY           SKY/WX    TMP DP  RH WIND       PRES   REMARKS
ALBUQUERQUE    MOCLDY    69  48  47 SE6       30.16S
DOUBLE EAGLE   MOCLDY    57  48  73 NW5       30.18F
MORIARTY ARPT  PTSUNNY   60  47  63 CALM      30.21F
CLINES CORNERS CLOUDY    60  46  59 W9        30.23F
BELEN          FAIR      63  50  63 CALM      30.15S
SOCORRO        FAIR      66  55  66 CALM      30.13R

$$
NMZ524>526-539-540-031100-
SOUTHCENTRAL MOUNTAINS

CITY           SKY/WX    TMP DP  RH WIND       PRES   REMARKS
RUIDOSO        PTCLDY    59  46  63 SW6       30.26F

$$
NMZ527>531-031100-
NORTHEAST HIGHLANDS/NORTHEAST PLAINS

CITY           SKY/WX    TMP DP  RH WIND       PRES   REMARKS
LAS VEGAS      MOCLDY    60  45  57 W8        30.20F
RATON          MOCLDY    56  51  84 N5        30.14F
CLAYTON        CLEAR     65  53  65 W12       30.02S

$$
NMZ532>537-031100-
EASTCENTRAL PLAINS

CITY           SKY/WX    TMP DP  RH WIND       PRES   REMARKS
TUCUMCARI      PTCLDY    71  50  47 SW13      30.00S
CANNON AFB     PTCLDY    69  53  56 SW8       30.06F
CLOVIS AIRPORT PTCLDY    66  54  63 SW8       30.07F

$$
NMZ028-029-538-031100-
SOUTHEAST PLAINS

CITY           SKY/WX    TMP DP  RH WIND       PRES   REMARKS
ROSWELL        PTCLDY    72  53  51 E5        30.02F
ARTESIA        PTCLDY    70  54  56 SW7       30.02S
CARLSBAD       MOCLDY    76  51  41 SE5       29.99F
HOBBS            N/A     64  54  68 SW6       30.05R


$$



USA.gov is the U.S. government's official web portal to all federal, state and local government web resources and services.